Location: Kikino
(54.4440°N, 112.0940°W)
Time: 11:18:17
(UTC+00:00)

AO-27 - Pass Details

Date: 06 December 2023
Orbit: 783 x 797 km, 98.8° (Epoch: 22 February)

Event Time Altitude Azimuth Distance (km) Brightness Sun altitude
Exits shadow 02:18:31 15° 4° (N) 2,033 9.7 -26.6°
Drops below altitude 10° 02:19:34 10° 357° (N) 2,381 10.1 -26.8°
Sets 02:22:06 0° 348° (NNW) 3,317 11.0 -27.2°
